This demonstration page uses our WeatherBlox Daily Observations layout. Learn more.

Hourly Observations for May 15, 2018

Temp ( °F °C ) Dew Point ( °F °C ) Humidity (%) Winds ( mph kmh ) Pressure ( in mb ) Visibility ( mi km ) Precip ( " mm )
12:15 am 00:15 Clear 63 17 63 17 100 100 WSW 7 11 30 1016 10 16.09344 0 0
12:30 am 00:30 Partly Cloudy 63 17 63 17 100 100 SW 5 7 30 1016 10 16.09344 0 0
12:55 am 00:55 Mostly Cloudy 63 17 61 16 94 94 SW 3 6 30 1016 10 16.09344 0 0
1:15 am 01:15 Mostly Cloudy with Light Rain 63 17 61 16 94 94 WSW 3 6 30 1016 10 16.09344 0 0
1:35 am 01:35 Mostly Cloudy 63 17 63 17 100 100 W 7 11 30 1016 10 16.09344 0 0
1:55 am 01:55 Mostly Cloudy 63 17 61 16 94 94 WSW 7 11 29.97 1015 10 16.09344 0 0
2:15 am 02:15 Partly Cloudy with Light Thunderstorms 63 17 63 17 100 100 WSW 7 11 29.97 1015 10 16.09344 0 0
2:35 am 02:35 Mostly Cloudy with Thunderstorms 63 17 63 17 100 100 W 5 7 29.97 1015 7 11.265408 0.02 0.508
2:55 am 02:55 Cloudy with Thunderstorms 61 16 61 16 100 100 W 8 13 30 1016 5 8.04672 0.1 2.54
3:15 am 03:15 Cloudy with Light Thunderstorms 61 16 61 16 100 100 NNE 3 6 29.97 1015 7 11.265408 0.07 1.778
3:35 am 03:35 Cloudy with Nearby Thunderstorms 61 16 61 16 100 100 WSW 3 6 29.97 1015 10 16.09344 0.07 1.778
3:55 am 03:55 Cloudy with Thunderstorms 61 16 61 16 100 100 WSW 3 6 30 1016 10 16.09344 0.09 2.286
4:15 am 04:15 Cloudy with Heavy Thunderstorms 61 16 61 16 100 100 SSE 7 11 29.97 1015 7 11.265408 0.14 3.556
4:35 am 04:35 Cloudy with Heavy Thunderstorms 61 16 61 16 100 100 SW 3 6 29.97 1015 3 4.828032 0.24 6.096
4:55 am 04:55 Cloudy with Light Thunderstorms 61 16 61 16 100 100 S 6 9 29.97 1015 10 16.09344 0.25 6.35
5:15 am 05:15 Cloudy 63 17 61 16 94 94 SSW 8 13 29.97 1015 10 16.09344 0 0
5:35 am 05:35 Mostly Cloudy 61 16 61 16 100 100 SSW 8 13 29.97 1015 10 16.09344 0 0
5:55 am 05:55 Mostly Cloudy 63 17 61 16 94 94 SSW 9 15 29.94 1014 10 16.09344 0 0
6:15 am 06:15 Partly Cloudy 63 17 61 16 94 94 SSW 8 13 29.94 1014 10 16.09344 0 0
6:35 am 06:35 Sunny 63 17 61 16 94 94 SSW 7 11 29.94 1014 10 16.09344 0 0
6:55 am 06:55 Sunny 63 17 61 16 94 94 SSW 10 17 29.94 1014 10 16.09344 0 0
7:15 am 07:15 Sunny 63 17 63 17 100 100 SSW 8 13 29.94 1014 10 16.09344 0 0
7:35 am 07:35 Sunny 63 17 63 17 100 100 SW 5 7 29.97 1015 10 16.09344 0 0
7:55 am 07:55 Sunny 63 17 63 17 100 100 SSW 6 9 29.97 1015 10 16.09344 0 0
8:15 am 08:15 Sunny 63 17 63 17 100 100 SSW 6 9 29.97 1015 10 16.09344 0 0
8:35 am 08:35 Sunny 64 18 63 17 94 94 SSW 5 7 29.97 1015 10 16.09344 0 0
8:55 am 08:55 Sunny 64 18 64 18 100 100 SSW 6 9 29.97 1015 10 16.09344 0 0
9:15 am 09:15 Sunny 66 19 64 18 94 94 S 7 11 29.97 1015 10 16.09344 0 0
9:35 am 09:35 Sunny 68 20 64 18 88 88 SSW 3 6 29.94 1014 10 16.09344 0 0
9:55 am 09:55 Sunny 70 21 64 18 83 83 S 5 7 29.94 1014 10 16.09344 0 0
10:15 am 10:15 Sunny 72 22 66 19 83 83 SSE 6 9 29.94 1014 10 16.09344 0 0
10:35 am 10:35 Sunny 73 23 68 20 83 83 S 5 7 29.94 1014 10 16.09344 0 0
10:55 am 10:55 Sunny 75 24 68 20 78 78 S 5 7 29.94 1014 10 16.09344 0 0
11:15 am 11:15 Sunny 77 25 68 20 74 74 S 6 9 29.94 1014 10 16.09344 0 0
11:35 am 11:35 Sunny 79 26 70 21 74 74 S 6 9 29.94 1014 10 16.09344 0 0
11:55 am 11:55 Sunny 81 27 72 22 74 74 SSW 6 9 29.94 1014 10 16.09344 0 0
12:15 pm 12:15 Sunny 82 28 72 22 70 70 S 7 11 29.94 1014 10 16.09344 0 0
12:35 pm 12:35 Sunny 84 29 72 22 66 66 SSW 9 15 29.91 1013 10 16.09344 0 0
12:55 pm 12:55 Sunny 84 29 72 22 66 66 S 13 20 29.91 1013 10 16.09344 0 0
1:15 pm 13:15 Sunny 86 30 73 23 66 66 S 12 19 29.88 1012 10 16.09344 0 0
1:35 pm 13:35 Sunny 88 31 73 23 62 62 SSW 12 19 29.85 1011 10 16.09344 0 0
1:55 pm 13:55 Sunny 88 31 73 23 62 62 SSW 8 13 29.85 1011 10 16.09344 0 0
2:15 pm 14:15 Sunny 90 32 72 22 55 55 SSW 12 19 29.85 1011 10 16.09344 0 0
2:35 pm 14:35 Sunny 90 32 72 22 55 55 SSW 12 19 29.83 1010 10 16.09344 0 0
2:55 pm 14:55 Sunny 90 32 72 22 55 55 S 10 17 29.83 1010 10 16.09344 0 0
3:15 pm 15:15 Sunny 91 33 72 22 52 52 SSW 12 19 29.83 1010 10 16.09344 0 0
3:35 pm 15:35 Sunny 90 32 72 22 55 55 S 14 22 29.83 1010 10 16.09344 0 0
3:55 pm 15:55 Sunny 90 32 72 22 55 55 SSW 14 22 29.8 1009 10 16.09344 0 0
4:15 pm 16:15 Sunny 90 32 73 23 59 59 SSW 10 17 29.8 1009 10 16.09344 0 0
4:35 pm 16:35 Sunny 90 32 73 23 59 59 SSW 14 22 29.8 1009 10 16.09344 0 0
4:55 pm 16:55 Sunny 90 32 72 22 55 55 SSW 12 19 29.8 1009 10 16.09344 0 0
5:15 pm 17:15 Sunny 90 32 72 22 55 55 SSW 13 20 29.8 1009 10 16.09344 0 0
5:35 pm 17:35 Sunny 90 32 73 23 59 59 SSW 10 17 29.8 1009 10 16.09344 0 0
5:55 pm 17:55 Sunny with Nearby Thunderstorms 88 31 72 22 59 59 SSW 9 15 29.8 1009 10 16.09344 0 0
6:15 pm 18:15 Sunny with Nearby Thunderstorms 86 30 72 22 62 62 SSW 9 15 29.8 1009 10 16.09344 0 0
6:35 pm 18:35 Sunny with Nearby Thunderstorms 86 30 73 23 66 66 SSW 10 17 29.8 1009 10 16.09344 0 0
6:55 pm 18:55 Partly Cloudy with Nearby Thunderstorms 86 30 72 22 62 62 SSW 12 19 29.8 1009 10 16.09344 0 0
7:15 pm 19:15 Partly Cloudy with Nearby Thunderstorms 84 29 72 22 66 66 SSW 8 13 29.8 1009 10 16.09344 0 0
7:35 pm 19:35 Partly Cloudy with Thunderstorms 84 29 72 22 66 66 SSW 10 17 29.8 1009 10 16.09344 0 0
7:55 pm 19:55 Sunny 82 28 66 19 58 58 SSW 13 20 29.88 1012 10 16.09344 0 0
8:15 pm 20:15 Sunny with Nearby Thunderstorms 81 27 64 18 58 58 SW 7 11 29.85 1011 10 16.09344 0 0
8:35 pm 20:35 Partly Cloudy with Nearby Thunderstorms 79 26 68 20 70 70 NNE 17 28 29.91 1013 10 16.09344 0 0
8:55 pm 20:55 Cloudy 73 23 68 20 83 83 NNE 13 20 29.94 1014 10 16.09344 0 0
9:15 pm 21:15 Cloudy 73 23 66 19 78 78 NE 5 7 29.94 1014 10 16.09344 0 0
9:30 pm 21:30 Cloudy with Heavy Thunderstorms 70 21 68 20 94 94 NE 12 19 29.97 1015 4 6.437376 0.19 4.826
9:55 pm 21:55 Cloudy with Heavy Thunderstorms 66 19 66 19 100 100 NNW 10 17 30 1016 3 4.828032 0.53 13.462
10:15 pm 22:15 Cloudy with Light Thunderstorms 64 18 64 18 100 100 ENE 6 9 30 1016 4 6.437376 0.14 3.556
10:35 pm 22:35 Cloudy with Light Rain 64 18 64 18 100 100 ENE 7 11 30 1016 10 16.09344 0.14 3.556
10:55 pm 22:55 Cloudy with Heavy Thunderstorms 64 18 64 18 100 100 ESE 5 7 30 1016 4 6.437376 0.2 5.08
11:15 pm 23:15 Cloudy with Rain 64 18 64 18 100 100 SE 6 9 30 1016 7 11.265408 0.03 0.762
11:35 pm 23:35 Cloudy with Light Rain 64 18 64 18 100 100 ENE 3 6 30 1016 10 16.09344 0.04 1.016
11:55 pm 23:55 Partly Cloudy 64 18 64 18 100 100 E 3 6 30 1016 10 16.09344 0.04 1.016

Powered by AerisWeather